Selinsgrove, PA

2:05 PM EST on November 14, 2019 (GMT -0500)
Penn Valley

Weather History for KSEG - October, 2019

Change the Weather History Date:

Sunday, October 20, 2019

  Actual Average (WUND) Record (WUND)
Temperature  
Mean Temperature 48 °F -  
Max Temperature 55 °F - - (-1)
Min Temperature 42 °F - - (-1)
Degree Days  
Heating Degree Days 16    
Moisture  
Dew Point 47 °F    
Average Humidity 92    
Maximum Humidity 100    
Minimum Humidity 80    
Precipitation  
Precipitation 0.10 in - - ()
Sea Level Pressure  
Sea Level Pressure 30.00 in    
Wind  
Wind Speed 1 mph (NNE)    
Max Wind Speed 6 mph    
Max Gust Speed -    
Visibility 7 miles    
Events Fog , Rain    
Averages and records for this station are not official NWS values.
T = Trace of Precipitation, MM = Missing Value Source: NWS Daily Summary

Daily Weather History Graph

Daily Weather History Graph

Search for Another Location

Airport or City:

Astronomy

Oct. 20, 2019 Rise Set
Actual Time 7:23 AM EDT 6:19 PM EDT
Civil Twilight 6:56 AM EDT 6:47 PM EDT
Nautical Twilight 6:24 AM EDT 7:19 PM EDT
Astronomical Twilight 5:52 AM EDT 7:51 PM EDT
Moon 11:25 PM EDT (10/20) 1:51 PM EDT (10/20)
Length of Visible Light 11h 51m
Length of Day
10h 55m
Waning Gibbous, 59% of the Moon is Illuminated
Oct 20
Waning Gibbous
Oct 21
Last Quarter
Oct 27
New
Nov 4
First Quarter
Nov 12
Full

Hourly Weather History & Observations

Time (EDT) Temp. Windchill Dew Point Humidity Pressure Visibility Wind Dir Wind Speed Gust Speed Precip Events Conditions
12:53 AM 42.1 °F - 41.0 °F 96% 30.01 in 10.0 mi Calm Calm - N/A   Clear
1:53 AM 42.1 °F - 41.0 °F 96% 30.00 in 10.0 mi Calm Calm - N/A   Clear
2:53 AM 44.1 °F - 41.0 °F 89% 29.99 in 10.0 mi Calm Calm - N/A   Clear
3:53 AM 43.0 °F 41.3 °F 39.9 °F 89% 29.97 in 10.0 mi North 3.5 mph - N/A   Clear
4:53 AM 43.0 °F - 42.1 °F 97% 29.97 in 10.0 mi Calm Calm - N/A   Clear
5:53 AM 44.1 °F 42.5 °F 41.0 °F 89% 29.97 in 10.0 mi North 3.5 mph - N/A   Clear
6:53 AM 45.0 °F - 43.0 °F 93% 29.99 in 10.0 mi Calm Calm - N/A   Mostly Cloudy
7:53 AM 45.0 °F - 43.0 °F 93% 29.99 in 10.0 mi Calm Calm - N/A   Mostly Cloudy
8:53 AM 46.9 °F - 44.1 °F 90% 30.01 in 10.0 mi Calm Calm - N/A   Mostly Cloudy
9:53 AM 48.0 °F - 45.0 °F 89% 30.01 in 9.0 mi Calm Calm - 0.01 in Rain Light Rain
10:53 AM 48.9 °F - 46.9 °F 93% 30.03 in 6.0 mi Calm Calm - 0.03 in Rain Light Rain
11:53 AM 51.1 °F - 48.9 °F 92% 30.02 in 7.0 mi Calm Calm - 0.04 in Rain Light Rain
12:50 PM 53.6 °F - 50.0 °F 88% 30.01 in 8.0 mi ESE 3.5 mph - 0.00 in   Overcast
12:53 PM 53.1 °F - 50.0 °F 89% 30.01 in 9.0 mi ESE 3.5 mph - 0.00 in   Overcast
1:53 PM 54.0 °F - 50.0 °F 86% 29.99 in 10.0 mi ESE 4.6 mph - 0.02 in Rain Light Rain
2:13 PM 54.0 °F - 50.0 °F 86% 29.99 in 10.0 mi East 3.5 mph - 0.00 in   Overcast
2:53 PM 55.9 °F - 50.0 °F 80% 29.97 in 10.0 mi Calm Calm - 0.00 in   Overcast
3:38 PM 55.9 °F - 51.1 °F 84% 29.97 in 10.0 mi NE 4.6 mph - N/A   Mostly Cloudy
3:53 PM 55.9 °F - 50.0 °F 80% 29.97 in 10.0 mi ENE 5.8 mph - N/A   Mostly Cloudy
4:53 PM 55.9 °F - 51.1 °F 84% 29.99 in 10.0 mi NNE 4.6 mph - 0.00 in   Overcast
5:53 PM 55.0 °F - 51.1 °F 86% 29.99 in 10.0 mi North 4.6 mph - N/A   Overcast
6:38 PM 53.1 °F - 51.1 °F 93% 29.98 in 10.0 mi Calm Calm - N/A   Mostly Cloudy
6:53 PM 52.0 °F - 51.1 °F 97% 29.99 in 10.0 mi Calm Calm - N/A   Partly Cloudy
7:53 PM 51.1 °F - 50.0 °F 96% 30.00 in 10.0 mi Calm Calm - N/A   Mostly Cloudy
8:03 PM 52.0 °F - 50.0 °F 93% 30.00 in 10.0 mi Calm Calm - N/A   Mostly Cloudy
8:53 PM 52.0 °F - 50.0 °F 93% 30.01 in 10.0 mi Calm Calm - N/A   Overcast
9:53 PM 50.0 °F - 48.9 °F 96% 30.01 in 5.0 mi Calm Calm - N/A   Overcast
10:00 PM 48.9 °F - 48.9 °F 100% 30.00 in 1.8 mi Calm Calm - N/A   Mostly Cloudy
10:04 PM 48.9 °F - 48.0 °F 97% 30.00 in 0.8 mi Calm Calm - N/A   Mostly Cloudy
10:17 PM 48.0 °F - 46.9 °F 96% 30.00 in 1.0 mi Calm Calm - N/A   Mist
10:24 PM 48.0 °F - 48.0 °F 100% 30.01 in 1.8 mi NNW 3.5 mph - N/A   Partly Cloudy
10:26 PM 48.0 °F - 46.9 °F 96% 30.00 in 3.0 mi NNW 3.5 mph - N/A   Partly Cloudy
10:40 PM 48.0 °F - 46.9 °F 96% 30.00 in 1.8 mi NNW 4.6 mph - N/A   Partly Cloudy
10:44 PM 46.9 °F - 46.9 °F 100% 30.00 in 1.0 mi North 3.5 mph - N/A   Partly Cloudy
10:53 PM 46.0 °F 43.9 °F 46.0 °F 100% 30.01 in 0.5 mi NNW 4.6 mph - N/A Fog Fog
11:01 PM 46.0 °F - 45.0 °F 96% 30.01 in 0.5 mi Calm Calm - N/A Fog Fog
11:53 PM 44.1 °F - 44.1 °F 100% 30.03 in 0.2 mi Calm Calm - N/A Fog Fog